Location: Alpino
(32.5215°N, 116.5815°W)
Time: 04:35:19
(UTC+00:00)

USA 308 - Pass Details

Date: 13 April 2024
Orbit: 493 x 493 km, 54.0° (Epoch: 14 March)

Event Time Altitude Azimuth Distance (km) Brightness Sun altitude
Exits shadow 12:32:13 15° 259° (WSW) 1,356 4.2 -10.3°
Maximum altitude 12:34:52 33° 318° (NW) 829 3.5 -9.8°
Drops below altitude 10° 12:38:26 10° 24° (NNE) 1,693 5.9 -9.0°
Sets 12:40:48 0° 34° (NE) 2,568 7.1 -8.6°
